Location: Unspecified
(49.9820°N, 20.4363°E)
Time: 04:43:13
(UTC+02:00)

Vanguard 3 - Pass Details

Date: 21 May 2026
Orbit: 507 x 3204 km, 33.3° (Epoch: 6 June)

Event Time Altitude Azimuth Distance (km) Brightness Sun altitude
Rises 10:38:06 0° 196° (SSW) 5,530 11.6 52.3°
Reaches altitude 10° 10:42:36 10° 182° (S) 4,947 11.7 52.9°
Maximum altitude 10:52:57 22° 138° (SE) 4,701 12.2 54.0°
Drops below altitude 10° 11:05:25 10° 97° (E) 6,105 12.1 55.4°
Sets 11:11:51 0° 85° (E) 7,144 12.2 56.0°
